EW4245 Weather Reports


Display with metric or nautical units.
time (UTC)temp
F
wind
direction
speed
MPH
gust
MPH
rain 1hr
in
rain 24hr
in
rain mn
in
humidity
%
barometer
mb
20220707134308 80 266 4.0 13.0 0.00 0.00 0.00 79 1016.9
20220707133808 80 212 5.0 13.0 0.00 0.00 0.00 79 1016.8
20220707133308 80 186 4.0 12.0 0.00 0.00 0.00 80 1016.7
20220707132810 80 249 3.0 10.0 0.00 0.00 0.00 80 1016.7
20220707132310 80 167 3.0 10.0 0.00 0.00 0.00 81 1016.7
20220707131803 80 250 4.0 10.0 0.00 0.00 0.00 82 1016.7
20220707131257 80 242 3.0 10.0 0.00 0.00 0.00 83 1016.6
20220707130750 79 218 3.0 9.0 0.00 0.00 0.00 83 1016.5
20220707130245 79 158 3.0 9.0 0.00 0.00 0.00 84 1016.5
20220707125739 79 255 3.0 9.0 0.00 0.00 0.00 85 1016.3
20220707125233 78 324 3.0 9.0 0.00 0.00 0.00 85 1016.2
20220707124727 78 249 2.0 8.0 0.00 0.00 0.00 86 1016.2
20220707124220 78 239 3.0 10.0 0.00 0.00 0.00 87 1016.2
20220707123714 78 221 3.0 10.0 0.00 0.00 0.00 87 1016.3
20220707123210 77 16 3.0 8.0 0.00 0.00 0.00 88 1016.3
20220707122702 77 126 2.0 7.0 0.00 0.00 0.00 88 1016.3
20220707122157 77 257 2.0 9.0 0.00 0.00 0.00 89 1016.3
20220707121652 76 231 2.0 9.0 0.00 0.00 0.00 89 1016.2
20220707121144 76 208 2.0 7.0 0.00 0.00 0.00 90 1016.2
20220707120639 76 225 2.0 10.0 0.00 0.00 0.00 90 1016.3
20220707120133 75 256 2.0 10.0 0.00 0.00 0.00 91 1016.3
20220707115629 75 202 1.0 7.0 0.00 0.00 0.00 91 1016.3
20220707115121 75 180 1.0 7.0 0.00 0.00 0.00 91 1016.3
20220707114614 75 204 1.0 6.0 0.00 0.00 0.00 91 1016.3
20220707114109 75 238 1.0 6.0 0.00 0.00 0.00 91 1016.2
20220707113603 75 228 2.0 6.0 0.00 0.00 0.00 91 1016.1
20220707113103 75 186 2.0 6.0 0.00 0.00 0.00 91 1016.0
20220707112604 75 274 2.0 6.0 0.00 0.00 0.00 91 1016.0
20220707112102 75 235 2.0 7.0 0.00 0.00 0.00 91 1016.0
20220707111603 75 226 1.0 7.0 0.00 0.00 0.00 90 1016.1
20220707111102 75 223 1.0 6.0 0.00 0.00 0.00 90 1016.0
20220707110602 75 214 2.0 6.0 0.00 0.00 0.00 90 1016.0
20220707110102 75 233 2.0 6.0 0.00 0.00 0.00 90 1015.9
20220707105604 75 259 2.0 6.0 0.00 0.00 0.00 90 1016.0
20220707105103 76 239 2.0 7.0 0.00 0.00 0.00 89 1015.9
20220707104603 76 134 2.0 8.0 0.00 0.00 0.00 89 1015.9
20220707104109 76 221 3.0 8.0 0.00 0.00 0.00 89 1015.9
20220707103602 76 236 3.0 10.0 0.00 0.00 0.00 89 1015.7
20220707103058 76 240 3.0 10.0 0.00 0.00 0.00 89 1015.7
20220707102559 76 236 3.0 9.0 0.00 0.00 0.00 88 1015.7
20220707102100 76 226 2.0 8.0 0.00 0.00 0.00 88 1015.7
20220707101558 76 273 2.0 10.0 0.00 0.00 0.00 88 1015.7
20220707101100 76 222 2.0 10.0 0.00 0.00 0.00 88 1015.7
20220707100552 76 173 2.0 8.0 0.00 0.00 0.00 87 1015.9
20220707100047 76 255 1.0 6.0 0.00 0.00 0.00 87 1015.7
20220707095542 76 236 1.0 5.0 0.00 0.00 0.00 87 1015.9
20220707095035 76 228 2.0 8.0 0.00 0.00 0.00 86 1015.7
20220707094529 77 218 2.0 8.0 0.00 0.00 0.00 86 1015.7
20220707094023 77 215 2.0 7.0 0.00 0.00 0.00 86 1015.7
20220707093519 77 184 2.0 7.0 0.00 0.00 0.00 86 1015.7
20220707093012 77 137 2.0 8.0 0.00 0.00 0.00 85 1015.7
20220707092504 77 211 2.0 10.0 0.00 0.00 0.00 85 1015.6
20220707092000 77 233 2.0 10.0 0.00 0.00 0.00 85 1015.6
20220707091453 77 229 2.0 9.0 0.00 0.00 0.00 84 1015.5
20220707090947 77 231 3.0 9.0 0.00 0.00 0.00 84 1015.5
20220707090441 77 214 2.0 8.0 0.00 0.00 0.00 84 1015.5
20220707085935 78 256 2.0 9.0 0.00 0.00 0.00 83 1015.5
20220707084923 78 270 3.0 8.0 0.00 0.00 0.00 82 1015.4
20220707084416 78 222 3.0 10.0 0.00 0.00 0.00 82 1015.4
20220707083911 78 248 2.0 10.0 0.00 0.00 0.00 81 1015.4
20220707083405 78 239 2.0 7.0 0.00 0.00 0.00 81 1015.4
20220707082859 78 221 2.0 7.0 0.00 0.00 0.00 80 1015.3
20220707082353 78 225 1.0 9.0 0.00 0.00 0.00 80 1015.4
20220707081847 78 129 2.0 9.0 0.00 0.00 0.00 80 1015.5
20220707081340 78 245 2.0 8.0 0.00 0.00 0.00 79 1015.5
20220707080835 78 260 2.0 8.0 0.00 0.00 0.00 79 1015.5
20220707080329 78 233 2.0 6.0 0.00 0.00 0.00 79 1015.3
20220707075824 79 221 1.0 5.0 0.00 0.00 0.00 79 1015.3
20220707075316 79 203 2.0 13.0 0.00 0.00 0.00 79 1015.4
20220707074810 79 225 1.0 13.0 0.00 0.00 0.00 79 1015.3
20220707074305 79 221 2.0 7.0 0.00 0.00 0.00 78 1015.4
20220707073759 79 145 2.0 7.0 0.00 0.00 0.00 78 1015.5
20220707073253 79 243 3.0 8.0 0.00 0.00 0.00 78 1015.3
20220707072748 80 162 3.0 8.0 0.00 0.00 0.00 77 1015.4
20220707072241 80 300 3.0 8.0 0.00 0.00 0.00 77 1015.4
20220707071734 80 225 2.0 7.0 0.00 0.00 0.00 76 1015.4
20220707071230 80 262 2.0 5.0 0.00 0.00 0.00 76 1015.4
20220707070722 80 301 2.0 8.0 0.00 0.00 0.00 75 1015.5
20220707070217 80 242 2.0 8.0 0.00 0.00 0.00 75 1015.6
20220707065711 80 277 2.0 6.0 0.00 0.00 0.00 74 1015.6
20220707065207 80 173 3.0 8.0 0.00 0.00 0.00 74 1015.5
20220707064658 81 243 3.0 8.0 0.00 0.00 0.00 73 1015.4
20220707064152 81 236 2.0 7.0 0.00 0.00 0.00 73 1015.4
20220707063650 81 245 2.0 8.0 0.00 0.00 0.00 73 1015.5
20220707063141 81 231 2.0 8.0 0.00 0.00 0.00 72 1015.4
20220707062635 81 210 2.0 7.0 0.00 0.00 0.00 72 1015.4
20220707062129 81 236 2.0 7.0 0.00 0.00 0.00 71 1015.4
20220707061622 82 238 2.0 6.0 0.00 0.00 0.00 70 1015.4
20220707061116 82 113 2.0 6.0 0.00 0.00 0.00 70 1015.3
20220707060611 82 233 2.0 6.0 0.00 0.00 0.00 69 1015.3
20220707060105 82 211 2.0 8.0 0.00 0.00 0.00 69 1015.2
20220707055559 82 65 2.0 8.0 0.00 0.00 0.00 68 1015.2
20220707055052 82 293 2.0 10.0 0.00 0.00 0.00 68 1015.2
20220707054548 83 218 3.0 10.0 0.00 0.00 0.00 68 1015.2
20220707054041 83 252 3.0 10.0 0.00 0.00 0.00 68 1015.2
20220707053535 83 212 2.0 8.0 0.00 0.00 0.00 68 1015.1
20220707053029 83 240 2.0 6.0 0.00 0.00 0.00 68 1015.1
20220707052523 83 239 2.0 9.0 0.00 0.00 0.00 68 1015.1
20220707052016 83 292 3.0 9.0 0.00 0.00 0.00 67 1015.0
20220707051511 83 176 3.0 9.0 0.00 0.00 0.00 67 1015.0
20220707051004 83 222 4.0 11.0 0.00 0.00 0.00 67 1015.0
20220707050459 84 203 4.0 11.0 0.00 0.00 0.00 66 1015.0
20220707045957 84 226 3.0 10.0 0.00 0.00 0.00 66 1015.0
20220707045458 84 159 3.0 14.0 0.00 0.00 0.00 66 1014.9
20220707044956 84 214 3.0 14.0 0.00 0.00 0.00 65 1014.9
20220707044457 84 253 3.0 10.0 0.00 0.00 0.00 65 1014.9
20220707043957 85 223 4.0 10.0 0.00 0.00 0.00 65 1014.9
20220707043500 85 214 4.0 11.0 0.00 0.00 0.00 64 1015.0
20220707042957 85 277 4.0 13.0 0.00 0.00 0.00 64 1014.9
20220707042456 85 253 4.0 13.0 0.00 0.00 0.00 63 1014.9
20220707041958 86 243 3.0 10.0 0.00 0.00 0.00 63 1014.9
20220707041452 86 174 3.0 12.0 0.00 0.00 0.00 62 1014.9
20220707040953 86 210 3.0 12.0 0.00 0.00 0.00 61 1014.7
20220707040453 87 214 4.0 11.0 0.00 0.00 0.00 61 1014.5
20220707035954 87 211 4.0 9.0 0.00 0.00 0.00 60 1014.4
20220707035453 87 222 4.0 9.0 0.00 0.00 0.00 60 1014.4
20220707034955 87 210 4.0 9.0 0.00 0.00 0.00 59 1014.3
20220707034455 87 205 4.0 9.0 0.00 0.00 0.00 59 1014.2
20220707033952 88 208 4.0 11.0 0.00 0.00 0.00 58 1014.1
20220707033455 88 257 4.0 11.0 0.00 0.00 0.00 57 1014.0
20220707032950 88 235 4.0 11.0 0.00 0.00 0.00 56 1014.0
20220707032448 89 245 4.0 11.0 0.00 0.00 0.00 54 1013.9
20220707031948 89 217 4.0 10.0 0.00 0.00 0.00 53 1013.9
20220707031450 89 184 3.0 10.0 0.00 0.00 0.00 52 1013.7
20220707030948 89 243 3.0 9.0 0.00 0.00 0.00 52 1013.7
20220707030449 89 236 2.0 9.0 0.00 0.00 0.00 51 1013.6
20220707025949 88 218 0.0 7.0 0.00 0.00 0.00 51 1013.5
20220707025448 89 176 0.0 1.0 0.00 0.00 0.00 50 1013.4
20220707024950 89 169 0.0 3.0 0.00 0.00 0.00 49 1013.4
20220707024444 89 158 0.0 3.0 0.00 0.00 0.00 49 1013.3
20220707023944 89 238 0.0 2.0 0.00 0.00 0.00 49 1013.2
20220707023444 90 226 0.0 2.0 0.00 0.00 0.00 47 1013.2
20220707022944 90 219 0.0 2.0 0.00 0.00 0.00 47 1013.1
20220707022444 90 215 0.0 2.0 0.00 0.00 0.00 47 1013.1
20220707021946 90 249 0.0 2.0 0.00 0.00 0.00 47 1013.1
20220707021445 90 218 0.0 2.0 0.00 0.00 0.00 47 1013.1
20220707020944 91 215 0.0 2.0 0.00 0.00 0.00 46 1013.0
20220707020447 91 160 0.0 2.0 0.00 0.00 0.00 46 1012.9
20220707015943 92 165 0.0 2.0 0.00 0.00 0.00 45 1012.9
20220707015441 92 188 0.0 2.0 0.00 0.00 0.00 44 1012.9
20220707014942 92 224 0.0 2.0 0.00 0.00 0.00 44 1012.9
20220707014441 93 240 0.0 3.0 0.00 0.00 0.00 44 1012.8
20220707013941 93 86 0.0 4.0 0.00 0.00 0.00 43 1012.8
20220707013440 93 211 0.0 4.0 0.00 0.00 0.00 43 1012.8
20220707012943 94 260 1.0 5.0 0.00 0.00 0.00 42 1012.7
20220707012442 94 246 2.0 5.0 0.00 0.00 0.00 42 1012.5
20220707011942 94 204 2.0 8.0 0.00 0.00 0.00 41 1012.4
20220707011436 95 207 2.0 6.0 0.00 0.00 0.00 41 1012.5
20220707010936 96 242 2.0 6.0 0.00 0.00 0.00 40 1012.5
20220707010436 96 236 2.0 8.0 0.00 0.00 0.00 39 1012.5
20220707005938 96 219 2.0 8.0 0.00 0.00 0.00 39 1012.5
20220707005438 97 242 2.0 8.0 0.00 0.00 0.00 38 1012.5
20220707004936 97 272 3.0 8.0 0.00 0.00 0.00 38 1012.7
20220707004436 97 221 3.0 7.0 0.00 0.00 0.00 38 1012.7
20220707003937 97 304 3.0 8.0 0.00 0.00 0.00 38 1012.8
20220707003437 97 276 4.0 8.0 0.00 0.00 0.00 37 1012.8
20220707002933 97 143 4.0 8.0 0.00 0.00 0.00 37 1012.7
20220707002433 98 226 3.0 8.0 0.00 0.00 0.00 37 1012.5
20220707001934 98 250 3.0 8.0 0.00 0.00 0.00 37 1012.5
20220707001432 98 240 3.0 8.0 0.00 0.00 0.00 38 1012.5
20220707000935 98 248 3.0 9.0 0.00 0.00 0.00 37 1012.5
20220707000435 98 249 3.0 9.0 0.00 0.00 0.00 37 1012.5
20220706235932 98 212 3.0 10.0 0.00 0.00 0.00 37 1012.4
20220706235433 99 202 3.0 10.0 0.00 0.00 0.00 37 1012.5
20220706234935 99 207 3.0 11.0 0.00 0.00 0.00 37 1012.5
20220706234427 99 225 4.0 11.0 0.00 0.00 0.00 37 1012.5
20220706233928 99 240 4.0 10.0 0.00 0.00 0.00 36 1012.5
20220706233427 100 245 4.0 10.0 0.00 0.00 0.00 36 1012.5
20220706232926 100 240 2.0 8.0 0.00 0.00 0.00 36 1012.5
20220706232429 100 124 2.0 8.0 0.00 0.00 0.00 36 1012.5
20220706231926 100 245 3.0 8.0 0.00 0.00 0.00 36 1012.7
20220706231427 100 276 4.0 8.0 0.00 0.00 0.00 36 1012.8
20220706230926 100 278 5.0 10.0 0.00 0.00 0.00 36 1012.7
20220706230424 101 263 3.0 10.0 0.00 0.00 0.00 37 1012.8
20220706225921 101 276 2.0 10.0 0.00 0.00 0.00 35 1012.8
20220706225420 101 97 2.0 8.0 0.00 0.00 0.00 33 1012.9
20220706224920 101 186 2.0 10.0 0.00 0.00 0.00 33 1012.9
20220706224422 101 257 2.0 11.0 0.00 0.00 0.00 35 1012.9
20220706223915 101 225 3.0 11.0 0.00 0.00 0.00 34 1013.1
20220706223414 101 146 2.0 8.0 0.00 0.00 0.00 35 1013.0
20220706222914 101 242 3.0 9.0 0.00 0.00 0.00 34 1013.1
20220706222412 101 186 3.0 9.0 0.00 0.00 0.00 34 1013.1
20220706221914 101 198 2.0 7.0 0.00 0.00 0.00 34 1013.2
20220706221412 101 250 3.0 11.0 0.00 0.00 0.00 35 1013.3
20220706220912 101 305 4.0 11.0 0.00 0.00 0.00 34 1013.2
20220706220412 101 333 4.0 10.0 0.00 0.00 0.00 34 1013.3
20220706215914 101 219 4.0 12.0 0.00 0.00 0.00 35 1013.3
20220706215414 101 242 4.0 12.0 0.00 0.00 0.00 36 1013.3
20220706214913 101 248 3.0 12.0 0.00 0.00 0.00 35 1013.3
20220706214414 101 228 3.0 10.0 0.00 0.00 0.00 33 1013.4
20220706213912 101 218 3.0 10.0 0.00 0.00 0.00 34 1013.4
20220706213414 101 194 3.0 11.0 0.00 0.00 0.00 36 1013.4
20220706212914 101 219 3.0 11.0 0.00 0.00 0.00 35 1013.4
20220706212405 101 81 2.0 8.0 0.00 0.00 0.00 32 1013.5
20220706211859 101 97 2.0 8.0 0.00 0.00 0.00 32 1013.6
20220706211353 101 204 3.0 9.0 0.00 0.00 0.00 35 1013.6
20220706210846 101 152 3.0 10.0 0.00 0.00 0.00 34 1013.7
20220706210346 101 250 2.0 10.0 0.00 0.00 0.00 33 1013.8
20220706205844 101 281 3.0 7.0 0.00 0.00 0.00 34 1013.9
20220706205342 101 238 3.0 11.0 0.00 0.00 0.00 35 1013.9
20220706204845 101 207 2.0 11.0 0.00 0.00 0.00 33 1014.1
20220706204342 101 169 3.0 11.0 0.00 0.00 0.00 33 1014.1
20220706203845 101 243 3.0 19.0 0.00 0.00 0.00 33 1014.1
20220706203343 101 231 3.0 19.0 0.00 0.00 0.00 35 1014.2
20220706202843 100 171 3.0 11.0 0.00 0.00 0.00 35 1014.1
20220706202346 101 204 3.0 10.0 0.00 0.00 0.00 34 1014.2
20220706201842 101 221 1.0 7.0 0.00 0.00 0.00 35 1014.3
20220706201342 100 188 2.0 6.0 0.00 0.00 0.00 36 1014.2
20220706200842 100 226 4.0 12.0 0.00 0.00 0.00 36 1014.3
20220706200344 100 274 4.0 12.0 0.00 0.00 0.00 36 1014.3
20220706195846 99 155 2.0 8.0 0.00 0.00 0.00 36 1014.2
20220706195336 100 225 3.0 8.0 0.00 0.00 0.00 36 1014.3
20220706194829 100 281 2.0 8.0 0.00 0.00 0.00 38 1014.3
20220706194328 100 219 3.0 10.0 0.00 0.00 0.00 37 1014.3
20220706193826 100 341 3.0 10.0 0.00 0.00 0.00 36 1014.4
20220706193327 99 159 2.0 10.0 0.00 0.00 0.00 38 1014.4
20220706192828 99 248 2.0 11.0 0.00 0.00 0.00 39 1014.5
20220706192326 99 242 2.0 11.0 0.00 0.00 0.00 39 1014.5
20220706191826 99 200 2.0 7.0 0.00 0.00 0.00 38 1014.7
20220706191324 99 210 3.0 9.0 0.00 0.00 0.00 37 1014.7
20220706190825 99 92 2.0 9.0 0.00 0.00 0.00 37 1014.8
20220706190325 98 211 1.0 7.0 0.00 0.00 0.00 38 1014.8
20220706185822 98 267 2.0 8.0 0.00 0.00 0.00 36 1014.9
20220706185322 98 263 2.0 8.0 0.00 0.00 0.00 36 1015.0
20220706184823 98 20 1.0 8.0 0.00 0.00 0.00 37 1014.9
20220706184324 98 274 2.0 10.0 0.00 0.00 0.00 38 1015.1
20220706183822 97 229 2.0 10.0 0.00 0.00 0.00 40 1015.2
20220706183325 97 221 2.0 8.0 0.00 0.00 0.00 40 1015.2
20220706182816 97 172 3.0 8.0 0.00 0.00 0.00 39 1015.3
20220706182310 96 167 3.0 9.0 0.00 0.00 0.00 40 1015.3
20220706181809 96 221 3.0 9.0 0.00 0.00 0.00 40 1015.4
20220706181307 96 204 2.0 11.0 0.00 0.00 0.00 43 1015.5
20220706180805 96 232 3.0 11.0 0.00 0.00 0.00 43 1015.5
20220706180304 96 359 3.0 10.0 0.00 0.00 0.00 42 1015.5
20220706175804 96 229 2.0 10.0 0.00 0.00 0.00 43 1015.6
20220706175304 95 242 2.0 7.0 0.00 0.00 0.00 47 1015.7
20220706174806 95 170 2.0 7.0 0.00 0.00 0.00 43 1016.0
20220706174302 95 336 3.0 9.0 0.00 0.00 0.00 43 1016.1
20220706173804 95 214 3.0 9.0 0.00 0.00 0.00 43 1016.1
20220706173303 95 242 2.0 9.0 0.00 0.00 0.00 43 1016.1
20220706172803 95 240 2.0 8.0 0.00 0.00 0.00 45 1016.2
20220706172302 94 229 2.0 8.0 0.00 0.00 0.00 46 1016.3
20220706171800 94 171 3.0 10.0 0.00 0.00 0.00 45 1016.3
20220706171300 93 137 3.0 10.0 0.00 0.00 0.00 45 1016.4
20220706170801 93 194 3.0 10.0 0.00 0.00 0.00 45 1016.4
20220706170255 92 221 2.0 7.0 0.00 0.00 0.00 48 1016.3
20220706165749 92 99 3.0 10.0 0.00 0.00 0.00 49 1016.4
20220706165243 92 229 3.0 10.0 0.00 0.00 0.00 47 1016.3
20220706164737 92 229 3.0 8.0 0.00 0.00 0.00 48 1016.4
20220706164231 91 256 3.0 9.0 0.00 0.00 0.00 49 1016.4
20220706163726 92 231 3.0 7.0 0.00 0.00 0.00 50 1016.4
20220706163227 91 30 3.0 9.0 0.00 0.00 0.00 50 1016.5
20220706162730 91 103 2.0 9.0 0.00 0.00 0.00 50 1016.6
20220706162225 91 249 2.0 8.0 0.00 0.00 0.00 54 1016.5
20220706161725 90 174 2.0 8.0 0.00 0.00 0.00 54 1016.5
20220706161225 90 207 2.0 9.0 0.00 0.00 0.00 55 1016.7
20220706160722 89 242 2.0 9.0 0.00 0.00 0.00 56 1016.7
20220706160224 89 212 3.0 9.0 0.00 0.00 0.00 57 1016.7
20220706155722 89 236 3.0 10.0 0.00 0.00 0.00 57 1016.7
20220706155222 88 247 3.0 10.0 0.00 0.00 0.00 57 1016.7
20220706154723 88 231 3.0 9.0 0.00 0.00 0.00 59 1016.7
20220706154220 88 214 3.0 9.0 0.00 0.00 0.00 60 1016.8
20220706153721 87 198 4.0 11.0 0.00 0.00 0.00 59 1016.8
20220706153220 87 191 3.0 11.0 0.00 0.00 0.00 60 1016.8
20220706152720 87 233 2.0 7.0 0.00 0.00 0.00 61 1016.7
20220706152221 86 294 3.0 11.0 0.00 0.00 0.00 63 1016.8
20220706151721 86 218 3.0 11.0 0.00 0.00 0.00 63 1016.9
20220706151214 86 303 4.0 10.0 0.00 0.00 0.00 65 1017.0
20220706150710 85 215 3.0 10.0 0.00 0.00 0.00 65 1017.0
20220706150211 85 285 4.0 11.0 0.00 0.00 0.00 66 1017.0
20220706145710 85 180 4.0 11.0 0.00 0.00 0.00 67 1017.0
20220706145212 85 259 3.0 8.0 0.00 0.00 0.00 68 1017.1
20220706144710 85 277 2.0 8.0 0.00 0.00 0.00 68 1017.0
20220706144210 84 247 2.0 7.0 0.00 0.00 0.00 69 1017.0
20220706143710 84 290 3.0 11.0 0.00 0.00 0.00 70 1017.0
20220706143211 83 229 3.0 11.0 0.00 0.00 0.00 71 1016.9
20220706142712 83 240 3.0 9.0 0.00 0.00 0.00 72 1016.9
20220706142210 83 267 3.0 9.0 0.00 0.00 0.00 72 1016.8
20220706141710 83 264 3.0 11.0 0.00 0.00 0.00 73 1016.8
20220706141211 82 186 3.0 11.0 0.00 0.00 0.00 74 1016.8
20220706140710 82 276 3.0 11.0 0.00 0.00 0.00 75 1016.8
20220706140211 82 252 4.0 11.0 0.00 0.00 0.00 76 1016.8
20220706135707 81 162 3.0 10.0 0.00 0.00 0.00 76 1016.7
20220706135207 82 190 2.0 9.0 0.00 0.00 0.00 77 1016.7
20220706134705 81 271 2.0 8.0 0.00 0.00 0.00 78 1016.7